Time,TemperatureF,DewpointF,PressureIn,WindDirection,WindDirectionDegrees,WindSpeedMPH,WindSpeedGustMPH,Humidity,HourlyPrecipIn,Conditions,Clouds,dailyrainin,SoftwareType,DateUTC
2013-03-12 00:02:00,25.5,20.3,30.40,West,267,2.0,11.0,80,0.00,,,0.00,meteohub,2013-03-12 06:02:00,
2013-03-12 00:07:00,25.5,20.3,30.40,West,259,1.0,12.0,80,0.00,,,0.00,meteohub,2013-03-12 06:07:00,
2013-03-12 00:12:00,25.3,19.8,30.40,WSW,257,2.0,12.0,79,0.00,,,0.00,meteohub,2013-03-12 06:12:00,
2013-03-12 00:17:00,25.3,19.8,30.40,West,266,0.0,12.0,79,0.00,,,0.00,meteohub,2013-03-12 06:17:00,
2013-03-12 00:22:00,25.3,19.4,30.40,NW,314,1.0,8.0,78,0.00,,,0.00,meteohub,2013-03-12 06:22:00,
2013-03-12 00:27:00,25.5,19.0,30.40,NW,325,3.0,9.0,76,0.00,,,0.00,meteohub,2013-03-12 06:27:00,
2013-03-12 00:32:00,25.7,18.9,30.40,NNW,330,4.0,9.0,75,0.00,,,0.00,meteohub,2013-03-12 06:32:00,
2013-03-12 00:37:00,25.7,18.5,30.39,NNW,336,2.0,9.0,74,0.00,,,0.00,meteohub,2013-03-12 06:37:00,
2013-03-12 00:42:00,25.7,18.3,30.39,WNW,294,2.0,9.0,73,0.00,,,0.00,meteohub,2013-03-12 06:42:00,
2013-03-12 00:47:00,25.7,18.3,30.39,NNW,334,3.0,9.0,73,0.00,,,0.00,meteohub,2013-03-12 06:47:00,
2013-03-12 00:52:00,25.7,18.3,30.39,West,261,3.0,9.0,73,0.00,,,0.00,meteohub,2013-03-12 06:52:00,
2013-03-12 00:57:00,25.9,18.1,30.40,SW,232,2.0,8.0,72,0.00,,,0.00,meteohub,2013-03-12 06:57:00,
2013-03-12 01:02:00,25.9,18.1,30.40,WNW,291,5.0,10.0,72,0.00,,,0.00,meteohub,2013-03-12 07:02:00,
2013-03-12 01:07:00,26.1,18.7,30.40,WNW,299,4.0,11.0,73,0.00,,,0.00,meteohub,2013-03-12 07:07:00,
2013-03-12 01:12:00,26.1,18.7,30.40,NW,323,2.0,12.0,73,0.00,,,0.00,meteohub,2013-03-12 07:12:00,
2013-03-12 01:18:00,26.1,18.7,30.40,WSW,247,3.0,12.0,73,0.00,,,0.00,meteohub,2013-03-12 07:18:00,
2013-03-12 01:23:00,25.9,18.7,30.40,WSW,255,1.0,12.0,74,0.00,,,0.00,meteohub,2013-03-12 07:23:00,
2013-03-12 01:28:00,25.7,18.5,30.40,SW,226,5.0,9.0,74,0.00,,,0.00,meteohub,2013-03-12 07:28:00,
2013-03-12 01:33:00,25.5,18.7,30.40,SW,225,2.0,9.0,75,0.00,,,0.00,meteohub,2013-03-12 07:33:00,
2013-03-12 01:39:00,25.7,18.9,30.40,SSW,193,3.0,8.0,75,0.00,,,0.00,meteohub,2013-03-12 07:39:00,
2013-03-12 01:44:00,25.5,19.0,30.40,SW,232,5.0,9.0,76,0.00,,,0.00,meteohub,2013-03-12 07:44:00,
2013-03-12 01:49:00,25.5,19.4,30.40,West,276,1.0,9.0,77,0.00,,,0.00,meteohub,2013-03-12 07:49:00,
2013-03-12 01:55:00,25.3,19.2,30.40,SW,236,2.0,9.0,77,0.00,,,0.00,meteohub,2013-03-12 07:55:00,
2013-03-12 02:00:00,25.3,19.2,30.40,SW,230,2.0,10.0,77,0.00,,,0.00,meteohub,2013-03-12 08:00:00,
2013-03-12 02:05:00,25.3,19.2,30.40,West,278,5.0,10.0,77,0.00,,,0.00,meteohub,2013-03-12 08:05:00,
2013-03-12 02:10:00,25.3,18.9,30.40,SW,219,3.0,7.0,76,0.00,,,0.00,meteohub,2013-03-12 08:10:00,
2013-03-12 02:15:00,25.3,19.4,30.40,SW,214,5.0,8.0,78,0.00,,,0.00,meteohub,2013-03-12 08:15:00,
2013-03-12 02:20:00,25.3,19.8,30.40,SW,233,3.0,12.0,79,0.00,,,0.00,meteohub,2013-03-12 08:20:00,
2013-03-12 02:25:00,25.2,19.9,30.40,SW,231,2.0,12.0,80,0.00,,,0.00,meteohub,2013-03-12 08:25:00,
2013-03-12 02:31:00,25.0,19.8,30.39,SW,214,9.0,12.0,80,0.00,,,0.00,meteohub,2013-03-12 08:31:00,
2013-03-12 02:36:00,24.8,19.8,30.39,SW,215,4.0,10.0,81,0.00,,,0.00,meteohub,2013-03-12 08:36:00,
2013-03-12 02:42:00,24.8,19.8,30.39,WSW,239,3.0,11.0,81,0.00,,,0.00,meteohub,2013-03-12 08:42:00,
2013-03-12 02:47:00,24.6,19.6,30.39,South,186,3.0,11.0,81,0.00,,,0.00,meteohub,2013-03-12 08:47:00,
2013-03-12 02:52:00,24.6,19.6,30.39,SSW,204,3.0,11.0,81,0.00,,,0.00,meteohub,2013-03-12 08:52:00,
2013-03-12 02:57:00,24.6,19.6,30.39,South,172,2.0,8.0,81,0.00,,,0.00,meteohub,2013-03-12 08:57:00,
2013-03-12 03:02:00,24.6,19.6,30.38,SSW,196,3.0,6.0,81,0.00,,,0.00,meteohub,2013-03-12 09:02:00,
2013-03-12 03:07:00,24.4,19.8,30.39,WSW,243,5.0,6.0,82,0.00,,,0.00,meteohub,2013-03-12 09:07:00,
2013-03-12 03:12:00,24.4,19.8,30.39,SSW,207,5.0,10.0,82,0.00,,,0.00,meteohub,2013-03-12 09:12:00,
2013-03-12 03:17:00,24.4,19.8,30.38,SW,218,3.0,10.0,82,0.00,,,0.00,meteohub,2013-03-12 09:17:00,
2013-03-12 03:22:00,24.4,19.9,30.38,SW,230,4.0,10.0,83,0.00,,,0.00,meteohub,2013-03-12 09:22:00,
2013-03-12 03:27:00,24.4,20.3,30.38,SSW,200,4.0,10.0,84,0.00,,,0.00,meteohub,2013-03-12 09:27:00,
2013-03-12 03:32:00,24.3,20.7,30.38,SW,228,4.0,10.0,86,0.00,,,0.00,meteohub,2013-03-12 09:32:00,
2013-03-12 03:37:00,24.3,20.5,30.38,SW,219,2.0,10.0,85,0.00,,,0.00,meteohub,2013-03-12 09:37:00,
2013-03-12 03:42:00,24.1,20.5,30.38,WSW,246,3.0,8.0,86,0.00,,,0.00,meteohub,2013-03-12 09:42:00,
2013-03-12 03:48:00,24.1,20.5,30.38,SW,215,3.0,7.0,86,0.00,,,0.00,meteohub,2013-03-12 09:48:00,
2013-03-12 03:53:00,24.1,20.5,30.38,SW,232,6.0,7.0,86,0.00,,,0.00,meteohub,2013-03-12 09:53:00,
2013-03-12 03:59:00,24.1,20.5,30.37,SSE,160,3.0,7.0,86,0.00,,,0.00,meteohub,2013-03-12 09:59:00,
2013-03-12 04:04:00,24.1,20.8,30.37,WSW,238,3.0,7.0,87,0.00,,,0.00,meteohub,2013-03-12 10:04:00,
2013-03-12 04:09:00,23.9,20.7,30.37,SSW,205,2.0,7.0,87,0.00,,,0.00,meteohub,2013-03-12 10:09:00,
2013-03-12 04:14:00,23.9,20.7,30.37,SSW,208,6.0,7.0,87,0.00,,,0.00,meteohub,2013-03-12 10:14:00,
2013-03-12 04:20:00,23.9,20.7,30.37,SW,231,2.0,8.0,87,0.00,,,0.00,meteohub,2013-03-12 10:20:00,
2013-03-12 04:25:00,23.9,20.7,30.37,WSW,238,5.0,8.0,87,0.00,,,0.00,meteohub,2013-03-12 10:25:00,
2013-03-12 04:30:00,23.9,20.7,30.37,South,182,2.0,8.0,87,0.00,,,0.00,meteohub,2013-03-12 10:30:00,
2013-03-12 04:35:00,23.9,20.7,30.37,SE,145,4.0,7.0,87,0.00,,,0.00,meteohub,2013-03-12 10:35:00,
2013-03-12 04:40:00,23.9,20.8,30.37,South,182,1.0,8.0,88,0.00,,,0.00,meteohub,2013-03-12 10:40:00,
2013-03-12 04:45:00,23.9,20.7,30.38,SSW,205,0.0,8.0,87,0.00,,,0.00,meteohub,2013-03-12 10:45:00,
2013-03-12 04:50:00,23.9,20.7,30.37,SW,216,3.0,8.0,87,0.00,,,0.00,meteohub,2013-03-12 10:50:00,
2013-03-12 04:56:00,23.9,20.7,30.37,SSW,211,4.0,6.0,87,0.00,,,0.00,meteohub,2013-03-12 10:56:00,
2013-03-12 05:01:00,24.1,20.8,30.37,SW,219,1.0,6.0,87,0.00,,,0.00,meteohub,2013-03-12 11:01:00,
2013-03-12 05:06:00,24.1,20.8,30.37,SW,219,2.0,6.0,87,0.00,,,0.00,meteohub,2013-03-12 11:06:00,
2013-03-12 05:12:00,24.1,20.8,30.37,SSW,199,2.0,5.0,87,0.00,,,0.00,meteohub,2013-03-12 11:12:00,
2013-03-12 05:17:00,24.1,20.8,30.37,SSW,201,0.0,4.0,87,0.00,,,0.00,meteohub,2013-03-12 11:17:00,
2013-03-12 05:22:00,24.1,20.8,30.37,WSW,248,1.0,4.0,87,0.00,,,0.00,meteohub,2013-03-12 11:22:00,
2013-03-12 05:28:00,24.1,21.0,30.37,WSW,248,0.0,4.0,88,0.00,,,0.00,meteohub,2013-03-12 11:28:00,
2013-03-12 05:33:00,24.1,21.0,30.37,WSW,248,0.0,3.0,88,0.00,,,0.00,meteohub,2013-03-12 11:33:00,
2013-03-12 05:38:00,23.9,20.8,30.37,WSW,248,0.0,2.0,88,0.00,,,0.00,meteohub,2013-03-12 11:38:00,
2013-03-12 05:43:00,23.9,20.8,30.38,WSW,248,0.0,2.0,88,0.00,,,0.00,meteohub,2013-03-12 11:43:00,
2013-03-12 05:48:00,23.7,20.7,30.38,WSW,248,1.0,1.0,88,0.00,,,0.00,meteohub,2013-03-12 11:48:00,
2013-03-12 05:54:00,23.7,21.0,30.38,WSW,248,1.0,2.0,89,0.00,,,0.00,meteohub,2013-03-12 11:54:00,
2013-03-12 05:59:00,23.5,20.8,30.38,WSW,248,0.0,2.0,89,0.00,,,0.00,meteohub,2013-03-12 11:59:00,
2013-03-12 06:04:00,23.5,20.8,30.38,SW,223,3.0,3.0,89,0.00,,,0.00,meteohub,2013-03-12 12:04:00,
2013-03-12 06:09:00,23.5,20.5,30.38,SW,231,2.0,2.0,88,0.00,,,0.00,meteohub,2013-03-12 12:09:00,
2013-03-12 06:14:00,23.5,20.5,30.38,SSW,206,5.0,5.0,88,0.00,,,0.00,meteohub,2013-03-12 12:14:00,
2013-03-12 06:20:00,23.7,20.7,30.38,SW,219,2.0,4.0,88,0.00,,,0.00,meteohub,2013-03-12 12:20:00,
2013-03-12 06:25:00,23.7,21.0,30.38,SSW,193,2.0,5.0,89,0.00,,,0.00,meteohub,2013-03-12 12:25:00,
2013-03-12 06:30:00,23.7,21.0,30.38,SW,219,4.0,5.0,89,0.00,,,0.00,meteohub,2013-03-12 12:30:00,
2013-03-12 06:36:00,23.7,21.0,30.39,SW,228,3.0,5.0,89,0.00,,,0.00,meteohub,2013-03-12 12:36:00,
2013-03-12 06:41:00,23.7,21.2,30.39,SW,232,1.0,5.0,90,0.00,,,0.00,meteohub,2013-03-12 12:41:00,
2013-03-12 06:46:00,23.5,21.0,30.39,SSW,207,2.0,5.0,90,0.00,,,0.00,meteohub,2013-03-12 12:46:00,
2013-03-12 06:52:00,23.7,21.2,30.39,West,271,1.0,5.0,90,0.00,,,0.00,meteohub,2013-03-12 12:52:00,
2013-03-12 06:57:00,23.5,21.0,30.39,SSW,203,0.0,5.0,90,0.00,,,0.00,meteohub,2013-03-12 12:57:00,
2013-03-12 07:02:00,23.5,21.0,30.39,South,189,2.0,4.0,90,0.00,,,0.00,meteohub,2013-03-12 13:02:00,
2013-03-12 07:07:00,23.5,21.0,30.39,WSW,242,2.0,4.0,90,0.00,,,0.00,meteohub,2013-03-12 13:07:00,
2013-03-12 07:13:00,23.5,21.0,30.38,SSE,163,2.0,5.0,90,0.00,,,0.00,meteohub,2013-03-12 13:13:00,
2013-03-12 07:18:00,23.5,21.0,30.38,SSW,207,2.0,5.0,90,0.00,,,0.00,meteohub,2013-03-12 13:18:00,
2013-03-12 07:23:00,23.5,21.0,30.38,WSW,238,2.0,5.0,90,0.00,,,0.00,meteohub,2013-03-12 13:23:00,
2013-03-12 07:29:00,23.5,21.0,30.38,South,172,3.0,5.0,90,0.00,,,0.00,meteohub,2013-03-12 13:29:00,
2013-03-12 07:34:00,23.7,21.0,30.38,SSE,157,2.0,4.0,89,0.00,,,0.00,meteohub,2013-03-12 13:34:00,
2013-03-12 07:39:00,23.7,21.0,30.38,South,177,3.0,5.0,89,0.00,,,0.00,meteohub,2013-03-12 13:39:00,
2013-03-12 07:45:00,23.9,20.8,30.38,SSE,167,6.0,6.0,88,0.00,,,0.00,meteohub,2013-03-12 13:45:00,
2013-03-12 07:50:00,24.1,20.8,30.38,SSW,211,3.0,6.0,87,0.00,,,0.00,meteohub,2013-03-12 13:50:00,
2013-03-12 07:55:00,24.1,20.8,30.38,SW,221,5.0,6.0,87,0.00,,,0.00,meteohub,2013-03-12 13:55:00,
2013-03-12 08:00:00,24.1,20.5,30.38,SSW,210,4.0,6.0,86,0.00,,,0.00,meteohub,2013-03-12 14:00:00,
2013-03-12 08:06:00,24.3,20.7,30.38,SW,228,5.0,8.0,86,0.00,,,0.00,meteohub,2013-03-12 14:06:00,
2013-03-12 08:12:00,24.4,20.7,30.38,SW,219,2.0,10.0,85,0.00,,,0.00,meteohub,2013-03-12 14:12:00,
2013-03-12 08:17:00,24.4,20.7,30.38,SW,229,4.0,10.0,85,0.00,,,0.00,meteohub,2013-03-12 14:17:00,
2013-03-12 08:22:00,24.4,20.7,30.39,SW,227,2.0,10.0,85,0.00,,,0.00,meteohub,2013-03-12 14:22:00,
2013-03-12 08:27:00,24.6,20.8,30.39,WSW,238,2.0,8.0,85,0.00,,,0.00,meteohub,2013-03-12 14:27:00,
2013-03-12 08:32:00,24.6,20.5,30.39,SW,215,5.0,8.0,84,0.00,,,0.00,meteohub,2013-03-12 14:32:00,
2013-03-12 08:37:00,24.6,20.8,30.39,West,262,3.0,8.0,85,0.00,,,0.00,meteohub,2013-03-12 14:37:00,
2013-03-12 08:42:00,24.6,21.0,30.40,SW,236,4.0,7.0,86,0.00,,,0.00,meteohub,2013-03-12 14:42:00,
2013-03-12 08:47:00,24.6,21.0,30.40,West,275,6.0,7.0,86,0.00,,,0.00,meteohub,2013-03-12 14:47:00,
2013-03-12 08:52:00,24.6,21.4,30.40,West,261,3.0,9.0,87,0.00,,,0.00,meteohub,2013-03-12 14:52:00,
2013-03-12 08:57:00,24.6,21.4,30.40,SW,220,2.0,9.0,87,0.00,,,0.00,meteohub,2013-03-12 14:57:00,
2013-03-12 09:02:00,24.8,21.6,30.40,SW,236,7.0,8.0,87,0.00,,,0.00,meteohub,2013-03-12 15:02:00,
2013-03-12 09:07:00,25.0,21.7,30.40,WSW,249,3.0,9.0,87,0.00,,,0.00,meteohub,2013-03-12 15:07:00,
2013-03-12 09:12:00,25.2,21.9,30.40,SW,219,6.0,9.0,87,0.00,,,0.00,meteohub,2013-03-12 15:12:00,
2013-03-12 09:17:00,25.3,22.3,30.40,West,265,1.0,9.0,88,0.00,,,0.00,meteohub,2013-03-12 15:17:00,
2013-03-12 09:22:00,25.5,22.3,30.40,SW,221,8.0,11.0,87,0.00,,,0.00,meteohub,2013-03-12 15:22:00,
2013-03-12 09:27:00,26.1,22.6,30.39,NW,305,4.0,11.0,87,0.00,,,0.00,meteohub,2013-03-12 15:27:00,
2013-03-12 09:32:00,26.2,22.6,30.39,NW,307,7.0,11.0,86,0.00,,,0.00,meteohub,2013-03-12 15:32:00,
2013-03-12 09:38:00,26.6,22.6,30.39,South,182,3.0,10.0,85,0.00,,,0.00,meteohub,2013-03-12 15:38:00,
2013-03-12 09:43:00,27.1,23.2,30.39,SW,236,1.0,10.0,85,0.00,,,0.00,meteohub,2013-03-12 15:43:00,
2013-03-12 09:48:00,27.7,23.5,30.39,WNW,294,4.0,11.0,84,0.00,,,0.00,meteohub,2013-03-12 15:48:00,
2013-03-12 09:54:00,28.2,23.4,30.39,West,271,3.0,11.0,82,0.00,,,0.00,meteohub,2013-03-12 15:54:00,
2013-03-12 09:59:00,28.6,23.5,30.38,SW,219,5.0,11.0,81,0.00,,,0.00,meteohub,2013-03-12 15:59:00,
2013-03-12 10:04:00,28.8,22.8,30.39,WSW,251,1.0,12.0,78,0.00,,,0.00,meteohub,2013-03-12 16:04:00,
2013-03-12 10:09:00,29.1,23.2,30.39,WSW,251,2.0,12.0,78,0.00,,,0.00,meteohub,2013-03-12 16:09:00,
2013-03-12 10:14:00,29.8,23.2,30.39,WSW,244,5.0,11.0,76,0.00,,,0.00,meteohub,2013-03-12 16:14:00,
2013-03-12 10:19:00,30.0,23.0,30.39,WNW,286,3.0,11.0,75,0.00,,,0.00,meteohub,2013-03-12 16:19:00,
2013-03-12 10:25:00,30.0,23.0,30.40,SW,236,5.0,11.0,75,0.00,,,0.00,meteohub,2013-03-12 16:25:00,
2013-03-12 10:30:00,30.0,23.4,30.40,SW,230,4.0,11.0,76,0.00,,,0.00,meteohub,2013-03-12 16:30:00,
2013-03-12 10:35:00,29.8,23.2,30.40,SW,227,12.0,12.0,76,0.00,,,0.00,meteohub,2013-03-12 16:35:00,
2013-03-12 10:40:00,30.0,23.4,30.41,SW,228,3.0,12.0,76,0.00,,,0.00,meteohub,2013-03-12 16:40:00,
2013-03-12 10:46:00,30.7,22.8,30.40,NW,315,0.0,12.0,72,0.00,,,0.00,meteohub,2013-03-12 16:46:00,
2013-03-12 10:52:00,31.8,22.5,30.41,WNW,291,8.0,15.0,68,0.00,,,0.00,meteohub,2013-03-12 16:52:00,
2013-03-12 10:57:00,32.5,23.5,30.40,WSW,251,0.0,15.0,69,0.00,,,0.00,meteohub,2013-03-12 16:57:00,
2013-03-12 11:02:00,32.9,23.5,30.40,SW,226,6.0,15.0,68,0.00,,,0.00,meteohub,2013-03-12 17:02:00,
2013-03-12 11:07:00,33.1,23.7,30.39,WNW,298,3.0,11.0,68,0.00,,,0.00,meteohub,2013-03-12 17:07:00,
2013-03-12 11:12:00,33.6,22.5,30.38,NW,309,7.0,10.0,63,0.00,,,0.00,meteohub,2013-03-12 17:12:00,
2013-03-12 11:18:00,34.0,23.5,30.38,West,278,6.0,11.0,65,0.00,,,0.00,meteohub,2013-03-12 17:18:00,
2013-03-12 11:23:00,34.2,23.2,30.38,WSW,252,3.0,11.0,64,0.00,,,0.00,meteohub,2013-03-12 17:23:00,
2013-03-12 11:28:00,34.0,23.0,30.38,SW,223,4.0,11.0,64,0.00,,,0.00,meteohub,2013-03-12 17:28:00,
2013-03-12 11:33:00,34.2,24.1,30.38,SW,233,10.0,11.0,66,0.00,,,0.00,meteohub,2013-03-12 17:33:00,
2013-03-12 11:38:00,34.2,23.2,30.37,SW,230,8.0,11.0,64,0.00,,,0.00,meteohub,2013-03-12 17:38:00,
2013-03-12 11:44:00,34.5,23.9,30.37,West,275,7.0,11.0,65,0.00,,,0.00,meteohub,2013-03-12 17:44:00,
2013-03-12 11:49:00,34.5,23.2,30.38,NNW,340,2.0,14.0,63,0.00,,,0.00,meteohub,2013-03-12 17:49:00,
2013-03-12 11:54:00,34.3,23.7,30.38,SW,235,1.0,14.0,65,0.00,,,0.00,meteohub,2013-03-12 17:54:00,
2013-03-12 12:00:00,34.5,23.9,30.38,WSW,240,8.0,13.0,65,0.00,,,0.00,meteohub,2013-03-12 18:00:00,
2013-03-12 12:05:00,34.3,23.4,30.38,WSW,253,2.0,13.0,64,0.00,,,0.00,meteohub,2013-03-12 18:05:00,
2013-03-12 12:10:00,34.3,22.6,30.38,NW,311,6.0,12.0,62,0.00,,,0.00,meteohub,2013-03-12 18:10:00,
2013-03-12 12:15:00,34.3,23.0,30.38,SW,230,6.0,14.0,63,0.00,,,0.00,meteohub,2013-03-12 18:15:00,
2013-03-12 12:21:00,33.6,21.9,30.38,SW,226,9.0,14.0,62,0.00,,,0.00,meteohub,2013-03-12 18:21:00,
2013-03-12 12:26:00,33.1,21.9,30.38,West,260,2.0,14.0,63,0.00,,,0.00,meteohub,2013-03-12 18:26:00,
2013-03-12 12:31:00,33.1,22.6,30.38,SSW,195,6.0,13.0,65,0.00,,,0.00,meteohub,2013-03-12 18:31:00,
2013-03-12 12:36:00,33.1,21.6,30.38,SW,229,3.0,10.0,62,0.00,,,0.00,meteohub,2013-03-12 18:36:00,
2013-03-12 12:41:00,32.9,22.1,30.38,SW,221,4.0,10.0,64,0.00,,,0.00,meteohub,2013-03-12 18:41:00,
2013-03-12 12:46:00,32.7,21.6,30.38,WSW,244,2.0,13.0,63,0.00,,,0.00,meteohub,2013-03-12 18:46:00,
2013-03-12 12:52:00,32.9,21.4,30.37,West,265,2.0,13.0,62,0.00,,,0.00,meteohub,2013-03-12 18:52:00,
2013-03-12 12:57:00,33.1,22.3,30.38,WSW,252,4.0,13.0,64,0.00,,,0.00,meteohub,2013-03-12 18:57:00,
2013-03-12 13:02:00,33.4,22.3,30.38,WNW,290,7.0,11.0,63,0.00,,,0.00,meteohub,2013-03-12 19:02:00,
2013-03-12 13:07:00,34.3,21.6,30.38,West,263,8.0,10.0,59,0.00,,,0.00,meteohub,2013-03-12 19:07:00,
2013-03-12 13:12:00,35.4,21.7,30.38,West,269,7.0,10.0,57,0.00,,,0.00,meteohub,2013-03-12 19:12:00,
2013-03-12 13:17:00,35.8,21.6,30.38,NW,305,8.0,12.0,56,0.00,,,0.00,meteohub,2013-03-12 19:17:00,
2013-03-12 13:23:00,36.1,21.6,30.39,NW,305,2.0,14.0,55,0.00,,,0.00,meteohub,2013-03-12 19:23:00,
2013-03-12 13:28:00,36.3,20.8,30.38,WNW,286,3.0,14.0,53,0.00,,,0.00,meteohub,2013-03-12 19:28:00,
2013-03-12 13:34:00,36.1,21.0,30.38,NNW,336,4.0,15.0,54,0.01,,,0.01,meteohub,2013-03-12 19:34:00,
2013-03-12 13:39:00,36.3,20.3,30.38,WNW,293,10.0,15.0,52,0.01,,,0.01,meteohub,2013-03-12 19:39:00,
2013-03-12 13:44:00,36.0,20.5,30.38,West,261,7.0,15.0,53,0.01,,,0.01,meteohub,2013-03-12 19:44:00,
2013-03-12 13:49:00,35.6,20.1,30.38,West,275,9.0,15.0,53,0.01,,,0.01,meteohub,2013-03-12 19:49:00,
2013-03-12 13:54:00,35.4,19.6,30.38,NW,321,4.0,15.0,52,0.01,,,0.01,meteohub,2013-03-12 19:54:00,
2013-03-12 14:00:00,35.2,19.8,30.38,West,280,5.0,14.0,53,0.01,,,0.01,meteohub,2013-03-12 20:00:00,
2013-03-12 14:05:00,35.2,20.7,30.38,WNW,288,10.0,14.0,55,0.01,,,0.01,meteohub,2013-03-12 20:05:00,
2013-03-12 14:10:00,35.2,20.7,30.38,NNW,345,2.0,13.0,55,0.01,,,0.01,meteohub,2013-03-12 20:10:00,
2013-03-12 14:15:00,35.4,21.2,30.38,WNW,303,3.0,13.0,56,0.01,,,0.01,meteohub,2013-03-12 20:15:00,
2013-03-12 14:20:00,35.8,21.2,30.38,SSW,210,2.0,13.0,55,0.01,,,0.01,meteohub,2013-03-12 20:20:00,
2013-03-12 14:26:00,35.8,21.2,30.38,NNE,21,7.0,14.0,55,0.02,,,0.02,meteohub,2013-03-12 20:26:00,
2013-03-12 14:31:00,35.8,21.6,30.38,WNW,294,5.0,14.0,56,0.01,,,0.02,meteohub,2013-03-12 20:31:00,
2013-03-12 14:37:00,36.3,21.7,30.38,WNW,303,7.0,14.0,55,0.01,,,0.02,meteohub,2013-03-12 20:37:00,
2013-03-12 14:42:00,36.1,21.6,30.38,WNW,297,9.0,13.0,55,0.01,,,0.02,meteohub,2013-03-12 20:42:00,
2013-03-12 14:47:00,36.1,21.6,30.39,WNW,298,8.0,13.0,55,0.01,,,0.02,meteohub,2013-03-12 20:47:00,
2013-03-12 14:52:00,36.0,21.7,30.38,West,270,6.0,13.0,56,0.01,,,0.02,meteohub,2013-03-12 20:52:00,
2013-03-12 14:57:00,36.1,21.9,30.39,SW,235,4.0,13.0,56,0.01,,,0.02,meteohub,2013-03-12 20:57:00,
2013-03-12 15:02:00,36.0,23.0,30.39,WNW,284,5.0,12.0,59,0.01,,,0.02,meteohub,2013-03-12 21:02:00,
2013-03-12 15:07:00,35.8,22.8,30.39,WSW,253,7.0,11.0,59,0.01,,,0.02,meteohub,2013-03-12 21:07:00,
2013-03-12 15:12:00,35.4,23.4,30.39,WSW,254,5.0,11.0,61,0.01,,,0.02,meteohub,2013-03-12 21:12:00,
2013-03-12 15:18:00,35.6,23.0,30.38,SW,222,4.0,11.0,60,0.02,,,0.03,meteohub,2013-03-12 21:18:00,
2013-03-12 15:23:00,35.4,23.0,30.38,SW,220,8.0,10.0,60,0.01,,,0.03,meteohub,2013-03-12 21:23:00,
2013-03-12 15:28:00,35.4,23.4,30.38,WSW,242,3.0,11.0,61,0.01,,,0.03,meteohub,2013-03-12 21:28:00,
2013-03-12 15:34:00,35.1,23.0,30.38,SW,223,5.0,11.0,61,0.01,,,0.03,meteohub,2013-03-12 21:34:00,
2013-03-12 15:39:00,35.1,23.0,30.38,WSW,252,4.0,11.0,61,0.01,,,0.03,meteohub,2013-03-12 21:39:00,
2013-03-12 15:44:00,35.1,23.0,30.38,SW,236,2.0,11.0,61,0.01,,,0.03,meteohub,2013-03-12 21:44:00,
2013-03-12 15:49:00,35.2,22.8,30.38,SW,222,3.0,11.0,60,0.02,,,0.03,meteohub,2013-03-12 21:49:00,
2013-03-12 15:55:00,36.0,23.0,30.38,SW,221,5.0,11.0,59,0.02,,,0.04,meteohub,2013-03-12 21:55:00,
2013-03-12 16:00:00,36.5,23.2,30.38,NW,313,5.0,10.0,58,0.02,,,0.04,meteohub,2013-03-12 22:00:00,
2013-03-12 16:05:00,37.0,22.5,30.38,WSW,250,5.0,11.0,55,0.02,,,0.04,meteohub,2013-03-12 22:05:00,
2013-03-12 16:10:00,37.4,22.6,30.38,West,273,5.0,12.0,55,0.02,,,0.04,meteohub,2013-03-12 22:10:00,
2013-03-12 16:15:00,37.9,22.8,30.38,WSW,257,5.0,12.0,54,0.02,,,0.04,meteohub,2013-03-12 22:15:00,
2013-03-12 16:20:00,38.3,22.6,30.38,WSW,243,10.0,12.0,53,0.02,,,0.05,meteohub,2013-03-12 22:20:00,
2013-03-12 16:25:00,38.5,22.5,30.38,NW,316,2.0,10.0,52,0.02,,,0.05,meteohub,2013-03-12 22:25:00,
2013-03-12 16:30:00,38.8,22.6,30.38,WNW,292,2.0,11.0,52,0.02,,,0.05,meteohub,2013-03-12 22:30:00,
2013-03-12 16:36:00,38.8,22.3,30.38,West,261,8.0,11.0,51,0.02,,,0.05,meteohub,2013-03-12 22:36:00,
2013-03-12 16:41:00,38.8,21.7,30.38,WSW,247,4.0,10.0,50,0.03,,,0.06,meteohub,2013-03-12 22:41:00,
2013-03-12 16:46:00,38.7,21.6,30.38,SW,222,5.0,11.0,50,0.02,,,0.06,meteohub,2013-03-12 22:46:00,
2013-03-12 16:52:00,38.7,22.1,30.38,SSW,212,4.0,11.0,51,0.02,,,0.06,meteohub,2013-03-12 22:52:00,
2013-03-12 16:57:00,38.7,21.6,30.38,West,272,5.0,11.0,50,0.02,,,0.06,meteohub,2013-03-12 22:57:00,
2013-03-12 17:02:00,38.1,21.2,30.37,WNW,295,7.0,11.0,50,0.02,,,0.06,meteohub,2013-03-12 23:02:00,
2013-03-12 17:07:00,37.2,20.8,30.37,SSW,201,5.0,11.0,51,0.02,,,0.06,meteohub,2013-03-12 23:07:00,
2013-03-12 17:12:00,36.7,20.7,30.38,West,270,2.0,11.0,52,0.02,,,0.06,meteohub,2013-03-12 23:12:00,
2013-03-12 17:17:00,36.3,21.2,30.38,SW,219,7.0,10.0,54,0.01,,,0.06,meteohub,2013-03-12 23:17:00,
2013-03-12 17:23:00,36.1,20.7,30.38,South,188,5.0,10.0,53,0.01,,,0.06,meteohub,2013-03-12 23:23:00,
2013-03-12 17:28:00,36.0,20.5,30.38,SW,214,4.0,13.0,53,0.01,,,0.06,meteohub,2013-03-12 23:28:00,
2013-03-12 17:33:00,35.6,20.7,30.38,SW,221,7.0,13.0,54,0.01,,,0.06,meteohub,2013-03-12 23:33:00,
2013-03-12 17:38:00,35.4,20.5,30.38,SSW,209,4.0,11.0,54,0.01,,,0.06,meteohub,2013-03-12 23:38:00,
2013-03-12 17:44:00,35.2,20.7,30.38,WSW,239,4.0,11.0,55,0.00,,,0.06,meteohub,2013-03-12 23:44:00,
2013-03-12 17:49:00,35.1,20.5,30.38,SSW,204,6.0,9.0,55,0.00,,,0.06,meteohub,2013-03-12 23:49:00,
2013-03-12 17:54:00,34.9,20.8,30.38,SW,217,7.0,9.0,56,0.00,,,0.06,meteohub,2013-03-12 23:54:00,
2013-03-12 18:00:00,34.7,21.0,30.37,West,261,2.0,12.0,57,0.01,,,0.07,meteohub,2013-03-13 00:00:00,
2013-03-12 18:05:00,34.5,20.8,30.38,West,271,7.0,12.0,57,0.01,,,0.00,meteohub,2013-03-13 00:05:00,
2013-03-12 18:10:00,34.5,21.7,30.38,West,281,5.0,10.0,59,0.01,,,0.00,meteohub,2013-03-13 00:10:00,
2013-03-12 18:15:00,34.3,21.9,30.38,SW,236,4.0,10.0,60,0.01,,,0.00,meteohub,2013-03-13 00:15:00,
2013-03-12 18:20:00,34.2,22.1,30.38,WNW,301,2.0,10.0,61,0.01,,,0.00,meteohub,2013-03-13 00:20:00,
2013-03-12 18:26:00,34.0,21.9,30.38,WNW,292,7.0,8.0,61,0.01,,,0.00,meteohub,2013-03-13 00:26:00,
2013-03-12 18:31:00,33.8,22.1,30.39,SW,220,2.0,8.0,62,0.01,,,0.00,meteohub,2013-03-13 00:31:00,
2013-03-12 18:37:00,33.4,21.7,30.39,West,278,6.0,8.0,62,0.01,,,0.00,meteohub,2013-03-13 00:37:00,
2013-03-12 18:42:00,33.4,21.7,30.39,WNW,290,3.0,8.0,62,0.01,,,0.00,meteohub,2013-03-13 00:42:00,
2013-03-12 18:47:00,33.1,22.3,30.39,NNW,327,2.0,8.0,64,0.01,,,0.00,meteohub,2013-03-13 00:47:00,
2013-03-12 18:52:00,32.9,22.1,30.40,West,265,2.0,8.0,64,0.00,,,0.00,meteohub,2013-03-13 00:52:00,
2013-03-12 18:57:00,32.7,21.9,30.40,WNW,298,4.0,10.0,64,0.00,,,0.00,meteohub,2013-03-13 00:57:00,
2013-03-12 19:02:00,32.5,22.1,30.40,WNW,290,4.0,10.0,65,0.00,,,0.00,meteohub,2013-03-13 01:02:00,
2013-03-12 19:08:00,32.4,21.9,30.40,NW,323,3.0,8.0,65,0.00,,,0.00,meteohub,2013-03-13 01:08:00,
2013-03-12 19:13:00,32.0,21.9,30.40,WSW,237,4.0,8.0,66,0.00,,,0.00,meteohub,2013-03-13 01:13:00,
2013-03-12 19:18:00,31.8,21.7,30.41,WNW,300,3.0,8.0,66,0.00,,,0.00,meteohub,2013-03-13 01:18:00,
2013-03-12 19:23:00,31.6,21.9,30.41,WNW,303,1.0,10.0,67,0.00,,,0.00,meteohub,2013-03-13 01:23:00,
2013-03-12 19:28:00,31.5,22.5,30.41,WNW,292,4.0,10.0,69,0.00,,,0.00,meteohub,2013-03-13 01:28:00,
2013-03-12 19:33:00,31.3,21.9,30.42,WNW,291,2.0,10.0,68,0.00,,,0.00,meteohub,2013-03-13 01:33:00,
2013-03-12 19:38:00,31.1,22.1,30.42,SW,223,4.0,7.0,69,0.00,,,0.00,meteohub,2013-03-13 01:38:00,
2013-03-12 19:44:00,30.9,22.3,30.42,WNW,290,3.0,8.0,70,0.00,,,0.00,meteohub,2013-03-13 01:44:00,
2013-03-12 19:49:00,30.7,22.1,30.42,SW,236,2.0,9.0,70,0.00,,,0.00,meteohub,2013-03-13 01:49:00,
2013-03-12 19:54:00,30.6,21.9,30.42,WSW,245,1.0,9.0,70,0.00,,,0.00,meteohub,2013-03-13 01:54:00,
2013-03-12 20:00:00,30.4,22.1,30.42,SW,226,3.0,9.0,71,0.00,,,0.00,meteohub,2013-03-13 02:00:00,
2013-03-12 20:05:00,30.0,21.7,30.42,SSW,209,3.0,8.0,71,0.00,,,0.00,meteohub,2013-03-13 02:05:00,
2013-03-12 20:10:00,29.8,21.9,30.42,SW,214,2.0,6.0,72,0.00,,,0.00,meteohub,2013-03-13 02:10:00,
2013-03-12 20:15:00,29.7,21.7,30.42,WSW,238,3.0,6.0,72,0.00,,,0.00,meteohub,2013-03-13 02:15:00,
2013-03-12 20:20:00,29.5,21.9,30.42,South,189,2.0,5.0,73,0.00,,,0.00,meteohub,2013-03-13 02:20:00,
2013-03-12 20:25:00,29.1,21.9,30.42,SSW,201,1.0,5.0,74,0.00,,,0.00,meteohub,2013-03-13 02:25:00,
2013-03-12 20:30:00,28.9,21.7,30.42,WSW,255,2.0,4.0,74,0.00,,,0.00,meteohub,2013-03-13 02:30:00,
2013-03-12 20:35:00,28.8,21.9,30.42,SSW,202,5.0,5.0,75,0.00,,,0.00,meteohub,2013-03-13 02:35:00,
2013-03-12 20:40:00,28.6,21.7,30.42,SSW,205,3.0,7.0,75,0.00,,,0.00,meteohub,2013-03-13 02:40:00,
2013-03-12 20:46:00,28.6,21.7,30.42,SW,236,2.0,7.0,75,0.00,,,0.00,meteohub,2013-03-13 02:46:00,
2013-03-12 20:51:00,28.2,21.4,30.42,SW,217,1.0,7.0,75,0.00,,,0.00,meteohub,2013-03-13 02:51:00,
2013-03-12 20:56:00,27.9,21.0,30.42,SW,217,0.0,4.0,75,0.00,,,0.00,meteohub,2013-03-13 02:56:00,
2013-03-12 21:02:00,27.5,20.3,30.42,SW,217,0.0,4.0,74,0.00,,,0.00,meteohub,2013-03-13 03:02:00,
2013-03-12 21:07:00,27.0,19.4,30.43,SW,217,2.0,2.0,73,0.00,,,0.00,meteohub,2013-03-13 03:07:00,
2013-03-12 21:12:00,26.4,19.6,30.43,SW,217,0.0,2.0,75,0.00,,,0.00,meteohub,2013-03-13 03:12:00,
2013-03-12 21:17:00,26.1,19.2,30.43,SW,217,0.0,2.0,75,0.00,,,0.00,meteohub,2013-03-13 03:17:00,
2013-03-12 21:22:00,25.5,19.0,30.43,SSE,153,2.0,2.0,76,0.00,,,0.00,meteohub,2013-03-13 03:22:00,
2013-03-12 21:28:00,25.2,19.0,30.43,SE,136,2.0,4.0,77,0.00,,,0.00,meteohub,2013-03-13 03:28:00,
2013-03-12 21:33:00,25.0,19.0,30.43,SSW,204,1.0,5.0,78,0.00,,,0.00,meteohub,2013-03-13 03:33:00,
2013-03-12 21:38:00,24.6,18.5,30.43,SSW,194,1.0,5.0,77,0.00,,,0.00,meteohub,2013-03-13 03:38:00,
2013-03-12 21:43:00,24.4,18.9,30.44,ESE,119,2.0,5.0,79,0.00,,,0.00,meteohub,2013-03-13 03:43:00,
2013-03-12 21:48:00,24.4,18.9,30.44,ESE,115,3.0,4.0,79,0.00,,,0.00,meteohub,2013-03-13 03:48:00,
2013-03-12 21:53:00,24.3,18.3,30.43,ESE,113,3.0,4.0,78,0.00,,,0.00,meteohub,2013-03-13 03:53:00,
2013-03-12 21:58:00,24.3,18.7,30.44,ESE,122,3.0,5.0,79,0.00,,,0.00,meteohub,2013-03-13 03:58:00,
2013-03-12 22:00:00,24.3,18.7,30.44,ESE,109,3.0,6.0,79,0.00,,,0.00,meteohub,2013-03-13 04:00:00,
2013-03-12 22:02:00,24.3,18.3,30.44,East,95,3.0,6.0,78,0.00,,,0.00,meteohub,2013-03-13 04:02:00,
2013-03-12 22:03:00,24.1,18.1,30.44,East,94,3.0,6.0,78,0.00,,,0.00,meteohub,2013-03-13 04:03:00,
2013-03-12 22:08:00,23.9,18.0,30.44,ESE,105,3.0,6.0,78,0.00,,,0.00,meteohub,2013-03-13 04:08:00,
2013-03-12 22:13:00,23.7,18.1,30.44,ESE,112,1.0,6.0,79,0.00,,,0.00,meteohub,2013-03-13 04:13:00,
2013-03-12 22:18:00,23.5,18.0,30.45,ESE,117,1.0,6.0,79,0.00,,,0.00,meteohub,2013-03-13 04:18:00,
2013-03-12 22:24:00,23.4,17.8,30.45,ESE,117,2.0,5.0,79,0.00,,,0.00,meteohub,2013-03-13 04:24:00,
2013-03-12 22:29:00,23.2,17.6,30.45,ESE,111,2.0,3.0,79,0.00,,,0.00,meteohub,2013-03-13 04:29:00,
2013-03-12 22:34:00,23.0,17.4,30.45,ESE,107,1.0,3.0,79,0.00,,,0.00,meteohub,2013-03-13 04:34:00,
2013-03-12 22:39:00,22.8,17.6,30.46,SE,144,2.0,3.0,80,0.00,,,0.00,meteohub,2013-03-13 04:39:00,
2013-03-12 22:44:00,22.6,17.4,30.46,ESE,118,2.0,5.0,80,0.00,,,0.00,meteohub,2013-03-13 04:44:00,
2013-03-12 22:49:00,22.6,17.4,30.46,ESE,113,3.0,5.0,80,0.00,,,0.00,meteohub,2013-03-13 04:49:00,
2013-03-12 22:54:00,22.5,17.2,30.46,East,98,3.0,6.0,80,0.00,,,0.00,meteohub,2013-03-13 04:54:00,
2013-03-12 23:00:00,22.5,17.2,30.47,ESE,117,2.0,6.0,80,0.00,,,0.00,meteohub,2013-03-13 05:00:00,
2013-03-12 23:05:00,22.5,17.6,30.47,SE,130,2.0,7.0,81,0.00,,,0.00,meteohub,2013-03-13 05:05:00,
2013-03-12 23:10:00,22.3,17.4,30.47,SE,130,2.0,7.0,81,0.00,,,0.00,meteohub,2013-03-13 05:10:00,
2013-03-12 23:15:00,22.3,17.4,30.47,SSE,151,2.0,3.0,81,0.00,,,0.00,meteohub,2013-03-13 05:15:00,
2013-03-12 23:20:00,22.3,17.4,30.47,ESE,117,2.0,6.0,81,0.00,,,0.00,meteohub,2013-03-13 05:20:00,
2013-03-12 23:26:00,22.5,17.6,30.47,ESE,110,1.0,6.0,81,0.00,,,0.00,meteohub,2013-03-13 05:26:00,
2013-03-12 23:31:00,22.5,17.6,30.47,ESE,121,2.0,5.0,81,0.00,,,0.00,meteohub,2013-03-13 05:31:00,
2013-03-12 23:36:00,22.5,17.6,30.46,ESE,106,1.0,5.0,81,0.00,,,0.00,meteohub,2013-03-13 05:36:00,
2013-03-12 23:41:00,22.3,17.4,30.46,ESE,105,1.0,5.0,81,0.00,,,0.00,meteohub,2013-03-13 05:41:00,
2013-03-12 23:47:00,22.3,18.0,30.46,East,79,2.0,5.0,83,0.00,,,0.00,meteohub,2013-03-13 05:47:00,
2013-03-12 23:52:00,22.3,17.4,30.47,ESE,121,2.0,4.0,81,0.00,,,0.00,meteohub,2013-03-13 05:52:00,
2013-03-12 23:57:00,22.3,17.6,30.47,ESE,121,1.0,4.0,82,0.00,,,0.00,meteohub,2013-03-13 05:57:00,